Вернуться в каталог

ARIANE 44LP DEB

АктивенGTO
NORAD 33542·DEBRIS·🇫🇷 France

Запущен Dec 11, 1988 с Guiana Space Centre

Loading…

TLE

УстаревшееSource: Space-Track

Эпоха: Sep 11, 2026, 16:50 UTC

1 33542U 88109R   26254.70169394 -.00000150  00000-0  13994-2 0  9996
2 33542   6.7203 172.7228 7113221 179.5614 352.7419  2.24349100173531

Отслеживайте ARIANE 44LP DEB в реальном времени с AllMySat

Download on the App Store